Location: Aciu?a
(46.2833°N, 22.4500°E)
Time: 04:02:48
(UTC+00:00)

Cosmos 1953 - Pass Details

Date: 25 October 2021
Orbit: 537 x 557 km, 82.5° (Epoch: 04 December)

Event Time Altitude Azimuth Distance (km) Brightness Sun altitude
Rises 15:47:52 0° 184° (S) 2,727 6.1 -4.4°
Reaches altitude 10° 15:50:01 10° 182° (S) 1,838 5.2 -4.8°
Maximum altitude 15:54:04 77° 97° (E) 579 2.3 -5.4°
Drops below altitude 10° 15:58:09 10° 12° (NNE) 1,853 4.8 -6.1°
Sets 16:00:20 0° 11° (N) 2,752 5.7 -6.5°
